GW2674 Weather Reports


time (UTC)temp
C
wind
direction
speed
KPH
gust
KPH
rain 1hr
cm
rain 24hr
cm
rain mn
cm
humidity
%
barometer
mb
20260507000925 15 268 19.3 35.4 0.00 0.00 0.00 76 1021.3
20260506233940 15 270 19.3 43.5 0.00 0.00 0.00 74 1021.0
20260506232435 15 270 19.3 43.5 0.00 0.00 0.00 74 1021.0
20260506230931 15 270 19.3 43.5 0.00 0.00 0.00 74 1021.0
20260506224016 15 271 25.7 43.5 0.00 0.00 0.00 77 1021.3
20260506222516 15 271 25.7 43.5 0.00 0.00 0.00 77 1021.3
20260506221013 15 271 25.7 43.5 0.00 0.00 0.00 77 1021.3
20260506215513 16 250 9.7 24.1 0.00 0.00 0.00 75 1021.3
20260506214008 16 250 9.7 24.1 0.00 0.00 0.00 75 1021.3
20260506212505 16 259 19.3 43.5 0.00 0.00 0.00 75 1021.0
20260506211000 16 259 19.3 43.5 0.00 0.00 0.00 75 1021.0
20260506205455 16 259 19.3 43.5 0.00 0.00 0.00 75 1021.0
20260506203952 16 241 11.3 29.0 0.00 0.00 0.00 75 1021.0
20260506202449 15 257 14.5 45.1 0.00 0.00 0.00 76 1021.0
20260506200946 16 256 12.9 38.6 0.00 0.00 0.00 74 1021.0
20260506195441 15 261 16.1 41.8 0.00 0.00 0.00 76 1020.7
20260506193938 15 267 19.3 45.1 0.00 0.00 0.00 77 1021.0
20260506192435 15 267 19.3 45.1 0.00 0.00 0.00 77 1021.0
20260506190931 15 267 19.3 45.1 0.00 0.00 0.00 77 1021.0
20260506182836 14 267 14.5 33.8 0.00 0.00 0.00 82 1021.7
20260506181334 14 267 14.5 33.8 0.00 0.00 0.00 82 1021.7
20260506175829 13 265 12.9 24.1 0.00 0.00 0.00 84 1021.7
20260506174326 13 276 19.3 30.6 0.00 0.00 0.00 83 1021.7
20260506172824 13 272 14.5 22.5 0.00 0.00 0.00 85 1021.7
20260506171320 13 272 14.5 22.5 0.00 0.00 0.00 85 1021.7
20260506165819 13 221 4.8 12.9 0.00 0.00 0.00 86 1021.7
20260506164315 12 242 3.2 8.0 0.00 0.00 0.00 89 1021.7
20260506162815 12 271 6.4 16.1 0.00 0.00 0.00 90 1022.0
20260506161313 11 246 4.8 11.3 0.00 0.00 0.00 94 1022.0
20260506155116 11 259 4.8 11.3 0.00 0.00 0.00 94 1022.0
20260506152548 11 259 4.8 11.3 0.00 0.00 0.00 94 1022.0
20260506151046 11 259 4.8 11.3 0.00 0.00 0.00 94 1022.0
20260506143959 11 276 6.4 16.1 0.00 0.00 0.00 94 1021.7
20260506142458 11 276 6.4 16.1 0.00 0.00 0.00 94 1021.7
20260506140957 11 276 6.4 16.1 0.00 0.00 0.00 94 1021.7
20260506135454 11 280 4.8 9.7 0.00 0.00 0.00 94 1021.3
20260506133949 11 280 4.8 9.7 0.00 0.00 0.00 94 1021.3
20260506132445 11 280 4.8 9.7 0.00 0.00 0.00 94 1021.3
20260506130941 11 29 0.0 3.2 0.00 0.00 0.00 95 1021.3
20260506125440 11 29 0.0 3.2 0.00 0.00 0.00 95 1021.3
20260506123939 11 91 0.0 4.8 0.00 0.00 0.00 95 1021.3
20260506122436 11 86 0.0 3.2 0.00 0.00 0.00 95 1021.0
20260506120934 11 347 0.0 3.2 0.00 0.00 0.00 94 1021.0
20260506115432 11 88 0.0 0.0 0.00 0.00 0.00 93 1020.7
20260506113932 11 88 0.0 0.0 0.00 0.00 0.00 93 1020.7
20260506112430 11 88 0.0 0.0 0.00 0.00 0.00 93 1020.7
20260506104045 11 88 0.0 0.0 0.00 0.00 0.00 92 1020.3
20260506102543 11 88 0.0 0.0 0.00 0.00 0.00 92 1020.3
20260506101039 11 88 0.0 0.0 0.00 0.00 0.00 91 1020.3
20260506095534 12 88 0.0 0.0 0.00 0.00 0.00 90 1020.3
20260506094031 12 63 1.6 4.8 0.00 0.00 0.00 91 1019.9
20260506092530 12 63 1.6 4.8 0.00 0.00 0.00 91 1019.9
20260506091027 11 95 1.6 4.8 0.00 0.00 0.00 93 1019.9
20260506085524 11 81 1.6 4.8 0.00 0.00 0.00 94 1019.9
20260506084019 11 288 0.0 0.0 0.00 0.00 0.00 94 1019.9
20260506082517 11 288 0.0 0.0 0.00 0.00 0.00 94 1019.9
20260506081014 11 288 0.0 0.0 0.00 0.00 0.00 94 1019.9
20260506072506 10 288 0.0 0.0 0.00 0.00 0.00 96 1019.5
20260506071005 10 288 0.0 0.0 0.00 0.00 0.00 96 1019.5
20260506062456 11 63 0.0 0.0 0.00 0.00 0.00 92 1019.2
20260506060953 11 63 0.0 0.0 0.00 0.00 0.00 92 1019.2
20260506050937 12 258 0.0 0.0 0.00 0.00 0.00 89 1019.2
20260506043948 13 131 1.6 9.7 0.00 0.00 0.00 84 1018.5
20260506042448 13 131 1.6 9.7 0.00 0.00 0.00 84 1018.5
20260506040946 13 131 1.6 9.7 0.00 0.00 0.00 84 1018.5
20260506035443 13 236 1.6 6.4 0.00 0.00 0.00 83 1018.2
20260506033939 13 243 6.4 17.7 0.00 0.00 0.00 83 1017.8
20260506032437 13 243 6.4 17.7 0.00 0.00 0.00 83 1017.8
20260506030934 13 243 6.4 17.7 0.00 0.00 0.00 83 1017.8
20260506023943 15 239 8.0 24.1 0.00 0.00 0.00 76 1017.2
20260506022441 15 239 8.0 24.1 0.00 0.00 0.00 76 1017.2
20260506020938 15 239 8.0 24.1 0.00 0.00 0.00 76 1017.2
20260506015437 15 245 9.7 20.9 0.00 0.00 0.00 76 1016.7
20260506013933 15 247 11.3 35.4 0.00 0.00 0.00 75 1016.7
20260506003943 16 253 16.1 48.3 0.00 0.00 0.00 73 1016.1
20260506002438 16 253 16.1 48.3 0.00 0.00 0.00 73 1016.1